PBO Station Position Time Series. Reference Frame : NAM14
Format Version,1.1.0
4-character ID,P420
Station name,FantasyFd_WA2004
Begin Date, 2004-06-24
End Date, 2019-10-07
Release Date, 2019-10-08
Reference position, 46.5886020039 North Latitude, -122.8663320496 East Longitude, 74.11343 meters elevation,
Date, North (mm), East (mm), Vertical (mm), North Std. Deviation (mm), East Std. Deviation (mm),              Vertical Std. Deviation (mm), Quality,
2004-06-24,0.00, 0.00, 0.00, 2.21, 1.56, 7.17, repro,
2004-06-25,3.97, -0.33, 3.00, 2.37, 1.67, 7.76, repro,
2004-06-26,6.90, -0.87, 1.50, 2.33, 1.68, 7.69, repro,
2004-06-27,3.66, -2.57, 3.19, 2.24, 1.60, 7.24, repro,
2004-06-28,5.56, -2.14, 3.63, 2.40, 1.73, 7.93, repro,
2004-06-29,4.57, -1.30, -2.92, 2.38, 1.71, 7.73, repro,
2004-06-30,3.80, -2.01, -1.10, 2.29, 1.61, 7.35, repro,
2004-07-01,4.10, -2.48, 2.08, 2.23, 1.60, 7.28, repro,
2004-07-02,3.53, -1.72, -0.09, 2.23, 1.61, 7.29, repro,
2004-07-03,1.28, -0.86, -1.77, 2.46, 1.72, 7.75, repro,
2004-07-04,3.68, -2.01, 1.55, 2.35, 1.69, 7.52, repro,
2004-07-05,5.16, -1.83, 3.95, 2.26, 1.62, 7.38, repro,
2004-07-06,1.78, -1.44, 2.32, 2.25, 1.60, 7.29, repro,
2004-07-07,1.02, -0.49, -1.72, 2.32, 1.64, 7.45, repro,
2004-07-08,1.65, -1.36, 1.28, 2.37, 1.66, 7.46, repro,
2004-07-09,-0.10, -0.60, 6.92, 2.29, 1.62, 7.32, repro,
2004-07-10,-0.88, -0.82, 2.11, 2.46, 1.73, 7.69, repro,
2004-07-11,2.73, -0.27, 4.69, 2.43, 1.72, 7.77, repro,
2004-07-12,4.81, -2.50, 1.64, 2.36, 1.67, 7.60, repro,
2004-07-13,6.07, -1.14, 1.02, 2.22, 1.59, 7.23, repro,
2004-07-14,2.81, 0.46, 5.90, 2.43, 1.72, 7.71, repro,
2004-07-15,1.04, -1.09, 10.90, 2.34, 1.67, 7.50, repro,
2004-07-16,4.45, -0.53, 4.96, 2.38, 1.71, 7.76, repro,
2004-07-17,5.52, -0.90, 6.83, 2.25, 1.60, 7.25, repro,
2004-07-18,5.59, -2.25, 1.86, 2.32, 1.68, 7.47, repro,
2004-07-19,-0.60, -4.10, 15.98, 2.31, 1.71, 7.65, repro,
2004-07-20,1.99, -2.38, 4.83, 2.36, 1.72, 7.70, repro,
2004-07-21,2.67, -1.72, 10.08, 2.34, 1.71, 7.48, repro,
2004-07-22,5.94, 0.16, 9.87, 2.30, 1.72, 7.51, repro,
2004-07-23,5.83, -0.50, 8.12, 2.19, 1.60, 7.13, repro,
2004-07-24,4.02, -0.59, 2.19, 2.20, 1.60, 7.17, repro,
2004-07-25,6.11, -1.15, 3.82, 2.22, 1.60, 7.19, repro,
2004-07-26,3.77, -0.35, 4.79, 2.25, 1.67, 7.58, repro,
2004-07-27,5.35, 0.28, 8.13, 2.38, 1.72, 7.65, repro,
2004-07-28,3.88, -0.78, 9.31, 2.29, 1.64, 7.30, repro,
2004-07-29,4.37, -1.08, 8.92, 2.26, 1.64, 7.29, repro,
2004-07-30,4.07, -2.21, 7.49, 2.28, 1.62, 7.30, repro,
2004-07-31,1.91, -1.13, 9.78, 2.31, 1.66, 7.43, repro,
2004-08-01,4.50, -1.21, 6.59, 2.22, 1.60, 7.19, repro,
2004-08-02,7.33, -2.24, 5.12, 2.22, 1.59, 7.17, repro,
2004-08-03,0.67, -0.95, 5.50, 2.41, 1.74, 7.89, repro,
2004-08-04,0.94, -0.21, 11.66, 2.33, 1.64, 7.40, repro,
2004-08-05,0.61, 0.79, 3.96, 2.24, 1.64, 7.36, repro,
2004-08-06,0.57, 1.68, 3.77, 2.30, 1.68, 7.58, repro,
2004-08-07,1.46, -0.98, 9.72, 2.22, 1.60, 7.20, repro,
2004-08-08,2.60, -1.91, 3.10, 2.35, 1.67, 7.41, repro,
2004-08-09,5.82, -1.58, -1.57, 2.25, 1.63, 7.23, repro,
2004-08-10,2.81, 0.97, 9.50, 2.28, 1.64, 7.34, repro,
2004-08-11,4.28, 0.92, 2.89, 2.23, 1.59, 7.17, repro,
2004-08-12,5.94, 1.21, 5.00, 2.34, 1.69, 7.50, repro,
2004-08-13,6.30, -0.85, 7.74, 2.27, 1.63, 7.33, repro,
2004-08-14,5.75, -0.63, 12.03, 2.20, 1.58, 7.10, repro,
2004-08-15,4.60, 0.61, 10.03, 2.22, 1.59, 7.17, repro,
2004-08-16,6.81, 0.82, 3.85, 2.28, 1.65, 7.37, repro,
2004-08-17,4.48, -0.89, 5.22, 2.28, 1.65, 7.42, repro,
2004-08-18,5.39, 0.10, 7.46, 2.29, 1.65, 7.42, repro,
2004-08-19,5.65, -0.83, 3.40, 2.23, 1.58, 7.14, repro,
2004-08-20,4.23, -1.77, -0.71, 2.27, 1.64, 7.29, repro,
2004-08-21,3.61, -2.21, 6.72, 2.25, 1.60, 7.26, repro,
2004-08-22,1.24, 0.48, 18.41, 2.35, 1.64, 7.46, repro,
2004-08-23,1.62, 1.65, 14.15, 2.24, 1.60, 7.24, repro,
2004-08-24,1.04, -0.83, 18.41, 2.24, 1.59, 7.21, repro,
2004-08-25,-0.60, -0.36, 21.52, 2.31, 1.63, 7.38, repro,
2004-08-26,2.10, -0.12, 4.90, 2.23, 1.60, 7.19, repro,
2004-08-27,1.00, 0.78, -2.27, 2.21, 1.57, 7.05, repro,
2004-08-28,1.88, 0.44, 10.89, 2.27, 1.71, 7.56, repro,
2004-08-29,4.55, 0.23, 7.91, 2.30, 1.69, 7.51, repro,
2004-08-30,5.55, -0.78, 10.24, 2.33, 1.70, 7.60, repro,
2004-08-31,4.62, 0.15, 8.05, 2.29, 1.66, 7.43, repro,
2004-09-01,3.14, 0.54, -0.81, 2.26, 1.61, 7.27, repro,
2004-09-02,0.37, -1.16, 7.71, 2.27, 1.63, 7.30, repro,
2004-09-03,2.69, -1.73, 14.92, 2.28, 1.65, 7.38, repro,
2004-09-04,1.56, -1.54, 15.43, 2.30, 1.65, 7.45, repro,
2004-09-05,2.65, -3.01, 11.37, 2.28, 1.65, 7.37, repro,
2004-09-06,0.77, -1.32, 6.55, 2.23, 1.59, 7.18, repro,
2004-09-07,2.60, -1.54, 3.71, 2.22, 1.59, 7.15, repro,
2004-09-08,3.89, -1.68, 8.69, 2.29, 1.65, 7.39, repro,
2004-09-09,1.13, 0.65, 11.32, 2.24, 1.59, 7.22, repro,
2004-09-10,1.19, -0.31, 5.51, 2.27, 1.63, 7.32, repro,
2004-09-11,-2.17, -0.01, 14.76, 2.29, 1.63, 7.41, repro,
2004-09-12,0.06, 0.41, 9.23, 2.22, 1.58, 7.13, repro,
2004-09-13,1.57, -0.29, 14.06, 2.31, 1.65, 7.44, repro,
2004-09-14,2.24, -1.13, 13.32, 2.27, 1.60, 7.27, repro,
2004-09-15,1.59, -0.74, 7.97, 2.31, 1.65, 7.40, repro,
2004-09-16,1.75, 1.15, 4.61, 2.22, 1.58, 7.10, repro,
2004-09-17,0.85, -0.32, 3.15, 2.28, 1.64, 7.32, repro,
2004-09-18,1.54, 0.06, 9.06, 2.25, 1.63, 7.26, repro,
2004-09-19,1.58, -0.25, 15.14, 2.21, 1.58, 7.11, repro,
2004-09-20,3.15, -1.14, 4.64, 2.25, 1.63, 7.33, repro,
2004-09-21,2.82, -0.24, -1.27, 2.34, 1.67, 7.37, repro,
2004-09-22,1.51, -0.20, -2.73, 2.25, 1.63, 7.26, repro,
2004-09-23,2.00, 0.39, 7.18, 2.36, 1.67, 7.41, repro,
2004-09-24,1.19, 0.56, 7.10, 2.26, 1.64, 7.28, repro,
2004-09-25,4.27, -3.20, 0.12, 2.25, 1.64, 7.29, repro,
2004-09-26,1.61, -0.19, -1.19, 2.21, 1.59, 7.10, repro,
2004-09-27,2.42, 0.12, 3.21, 2.26, 1.63, 7.29, repro,
2004-09-28,1.08, -1.85, 9.15, 2.29, 1.68, 7.30, repro,
2004-09-29,3.06, 0.50, 2.99, 2.21, 1.60, 7.15, repro,
2004-09-30,2.27, 1.02, 5.01, 2.20, 1.58, 7.07, repro,
2004-10-01,2.68, -0.11, 4.00, 2.38, 1.74, 7.58, repro,
2004-10-02,5.16, -1.73, 1.89, 2.25, 1.61, 7.26, repro,
2004-10-03,4.59, -1.78, 3.22, 2.36, 1.72, 7.60, repro,
2004-10-04,2.12, -0.20, -1.06, 2.20, 1.59, 7.13, repro,
2004-10-05,0.50, -0.02, 6.75, 2.20, 1.59, 7.13, repro,
2004-10-06,-0.74, 1.04, 9.61, 2.36, 1.70, 7.65, repro,
2004-10-07,2.25, -0.12, 7.60, 2.45, 1.79, 7.91, repro,
2004-10-08,0.82, -0.40, 4.06, 2.26, 1.64, 7.28, repro,
2004-10-09,1.90, -0.66, 0.28, 2.34, 1.68, 7.51, repro,
2004-10-10,2.42, -1.45, 8.49, 2.28, 1.65, 7.30, repro,
2004-10-11,0.27, 0.44, 4.30, 2.25, 1.63, 7.23, repro,
2004-10-12,1.96, 1.81, -0.89, 2.26, 1.62, 7.22, repro,
2004-10-13,1.81, 1.18, -0.26, 2.25, 1.63, 7.25, repro,
2004-10-14,0.47, -0.46, -1.17, 2.33, 1.67, 7.52, repro,
2004-10-15,2.88, 0.63, 4.50, 2.26, 1.62, 7.25, repro,
2004-10-16,1.48, 0.23, 8.46, 2.21, 1.58, 7.07, repro,
2004-10-17,1.72, 1.14, 15.46, 2.42, 1.71, 7.55, repro,
2004-10-18,0.75, 0.30, 13.06, 2.22, 1.59, 7.11, repro,
2004-10-19,-0.21, 0.59, 10.01, 2.27, 1.62, 7.20, repro,
2004-10-20,-0.51, 0.14, 10.43, 2.31, 1.66, 7.42, repro,
2004-10-21,2.38, 0.37, 7.34, 2.27, 1.60, 7.16, repro,
2004-10-22,1.30, 1.05, 11.75, 2.27, 1.60, 7.18, repro,
2004-10-23,0.87, 1.05, 9.37, 2.23, 1.58, 7.03, repro,
2004-10-24,1.65, 0.72, 10.63, 2.22, 1.58, 7.06, repro,
2004-10-25,1.43, 0.81, 4.58, 2.26, 1.62, 7.33, repro,
2004-10-26,1.84, 0.17, 7.74, 2.35, 1.66, 7.48, repro,
2004-10-27,0.72, 0.82, 7.00, 2.39, 1.67, 7.55, repro,
2004-10-28,0.66, 0.83, 5.31, 2.28, 1.62, 7.32, repro,
2004-10-29,0.88, 1.65, -0.65, 2.26, 1.62, 7.32, repro,
2004-10-30,-1.21, 3.17, 5.29, 2.33, 1.69, 7.56, repro,
2004-10-31,-0.34, 1.12, 2.15, 2.25, 1.62, 7.28, repro,
2004-11-01,1.04, 1.86, -3.30, 2.31, 1.68, 7.50, repro,
2004-11-02,0.32, 1.42, -3.98, 2.22, 1.59, 7.08, repro,
2004-11-03,1.12, 2.46, -1.86, 2.26, 1.64, 7.24, repro,
2004-11-04,0.44, 1.69, 1.67, 2.27, 1.64, 7.25, repro,
2004-11-05,0.63, 1.66, 6.71, 2.38, 1.75, 7.71, repro,
2004-11-06,1.28, 1.17, 2.82, 2.32, 1.70, 7.41, repro,
2004-11-07,1.13, 1.64, 3.56, 2.28, 1.65, 7.26, repro,
2004-11-08,1.52, 2.05, 4.23, 2.63, 1.93, 8.79, repro,
2004-11-09,0.65, 1.10, 3.85, 2.33, 1.69, 7.52, repro,
2004-11-10,1.31, 2.59, -3.77, 2.44, 1.75, 8.13, repro,
2004-11-11,1.88, 2.17, -4.98, 2.30, 1.68, 7.44, repro,
2004-11-12,1.60, 1.27, -0.21, 2.29, 1.67, 7.38, repro,
2004-11-13,0.98, 0.90, -3.31, 2.25, 1.63, 7.18, repro,
2004-11-14,1.40, 1.10, -4.92, 2.27, 1.64, 7.24, repro,
2004-11-15,-0.69, 0.07, 1.47, 2.25, 1.61, 7.14, repro,
2004-11-16,0.73, 1.69, 2.82, 2.25, 1.64, 7.27, repro,
2004-11-17,0.65, 2.27, -1.37, 2.34, 1.71, 7.62, repro,
2004-11-18,0.78, 2.05, -1.45, 2.22, 1.61, 7.18, repro,
2004-11-19,0.48, 1.94, -2.30, 2.35, 1.73, 7.65, repro,
2004-11-20,1.37, 1.50, -3.95, 2.30, 1.67, 7.44, repro,
2004-11-21,0.24, 1.14, -2.47, 2.50, 1.81, 7.96, repro,
2004-11-22,2.82, 1.10, 1.92, 2.28, 1.67, 7.46, repro,
2004-11-23,1.64, 1.36, 7.78, 2.29, 1.64, 7.22, repro,
2004-11-24,-1.45, 1.13, 11.93, 2.28, 1.64, 7.23, repro,
2004-11-25,0.40, 2.14, 6.06, 2.49, 1.83, 8.02, repro,
2004-11-26,1.33, 0.86, 3.58, 2.25, 1.66, 7.35, repro,
2004-11-27,0.99, 1.66, 6.27, 2.28, 1.71, 7.50, repro,
2004-11-28,1.03, 2.02, -1.88, 2.23, 1.65, 7.32, repro,
2004-11-29,1.80, 0.80, 2.42, 2.16, 1.57, 6.97, repro,
2004-11-30,1.72, 1.40, -0.62, 2.34, 1.74, 7.64, repro,
2004-12-01,1.34, 1.69, -2.76, 2.37, 1.71, 7.55, repro,
2004-12-02,1.16, 1.36, -0.16, 2.27, 1.61, 7.17, repro,
2004-12-03,0.27, 1.32, -2.68, 2.31, 1.65, 7.48, repro,
2004-12-04,2.69, 0.21, 0.11, 2.35, 1.70, 7.55, repro,
2004-12-05,2.30, 0.53, 6.92, 2.28, 1.63, 7.31, repro,
2004-12-06,3.04, 0.66, 9.85, 2.47, 1.81, 7.94, repro,
2004-12-07,0.47, 1.41, 10.51, 2.30, 1.67, 7.39, repro,
2004-12-08,1.02, -0.72, 13.29, 2.22, 1.60, 7.14, repro,
2004-12-09,1.64, 0.48, 7.92, 2.22, 1.62, 7.17, repro,
2004-12-10,-1.07, -0.51, 4.91, 2.29, 1.65, 7.39, repro,
2004-12-11,2.22, 1.67, 2.26, 2.27, 1.62, 7.28, repro,
2004-12-12,2.10, 1.23, -1.28, 2.29, 1.64, 7.26, repro,
2004-12-13,1.49, 1.41, 1.22, 2.32, 1.64, 7.32, repro,
2004-12-14,0.26, 0.11, -0.91, 2.39, 1.72, 7.60, repro,
2004-12-15,1.39, 1.09, -6.55, 2.30, 1.64, 7.18, repro,
2004-12-16,2.48, 1.69, -11.33, 2.24, 1.58, 7.14, repro,
2004-12-17,2.52, 1.39, -9.38, 2.17, 1.58, 6.99, repro,
2004-12-18,1.16, 0.52, -10.64, 2.21, 1.66, 7.22, repro,
2004-12-19,0.58, 2.11, -9.12, 2.17, 1.58, 7.03, repro,
2004-12-20,1.45, 0.81, 0.56, 2.16, 1.56, 6.96, repro,
2004-12-21,2.58, 0.67, -1.07, 2.20, 1.58, 7.09, repro,
2004-12-22,2.55, 1.77, -6.70, 2.19, 1.58, 7.06, repro,
2004-12-23,1.35, 2.11, -7.61, 2.16, 1.56, 6.93, repro,
2004-12-24,1.20, 1.73, -3.25, 2.21, 1.60, 7.13, repro,
2004-12-25,1.44, 0.98, 0.03, 2.20, 1.60, 7.10, repro,
2004-12-26,1.19, 0.25, 1.15, 2.25, 1.58, 7.05, repro,
2004-12-27,1.56, 2.19, 2.73, 2.29, 1.60, 7.10, repro,
2004-12-28,1.89, 1.42, 4.38, 2.31, 1.61, 7.12, repro,
2004-12-29,1.70, 1.60, 2.71, 2.36, 1.64, 7.26, repro,
2004-12-30,0.64, 0.89, 5.36, 2.45, 1.71, 7.60, repro,
2004-12-31,1.31, 1.67, 3.54, 2.50, 1.76, 7.65, repro,
2005-01-01,0.61, 1.17, -1.86, 2.35, 1.61, 7.14, repro,
2005-01-02,1.57, 1.42, -3.45, 2.35, 1.61, 7.12, repro,
2005-01-03,1.33, 2.79, -4.82, 2.35, 1.62, 7.14, repro,
2005-01-04,2.42, 2.97, -2.18, 2.43, 1.69, 7.38, repro,
2005-01-05,3.06, 2.32, -6.55, 2.39, 1.67, 7.38, repro,
2005-01-06,1.86, 1.16, 0.23, 2.38, 1.69, 7.35, repro,
2005-01-07,1.94, 0.16, 1.82, 2.38, 1.68, 7.32, repro,
2005-01-08,2.28, 1.07, -1.37, 2.29, 1.68, 7.25, repro,
2005-01-09,1.08, 2.15, -1.11, 2.28, 1.69, 7.30, repro,
2005-01-10,3.05, 1.16, -6.54, 2.51, 1.87, 8.25, repro,
2005-01-11,1.69, 2.36, -0.10, 2.41, 1.87, 7.98, repro,
2005-01-12,1.07, 2.26, -4.44, 2.41, 1.77, 7.89, repro,
2005-01-13,1.92, 2.14, -5.58, 2.40, 1.75, 7.58, repro,
2005-01-14,2.75, 2.21, -12.87, 2.42, 1.82, 8.01, repro,
2005-01-15,1.33, 1.96, -14.25, 2.42, 1.88, 8.15, repro,
2005-01-16,2.65, 1.82, -12.38, 2.34, 1.68, 7.27, repro,
2005-01-17,-0.26, 3.47, -10.00, 2.23, 1.60, 7.07, repro,
2005-01-18,-0.53, 1.88, -7.95, 2.26, 1.61, 7.16, repro,
2005-01-19,-0.17, 2.33, -5.69, 2.32, 1.63, 7.20, repro,
2005-01-20,0.41, 3.08, -8.08, 2.32, 1.69, 7.34, repro,
2005-01-21,2.77, 0.91, 1.58, 2.42, 1.80, 7.71, repro,
2005-01-22,0.76, 3.65, -6.64, 2.29, 1.71, 7.46, repro,
2005-01-23,2.30, 0.39, -6.68, 2.21, 1.60, 7.05, repro,
2005-01-24,0.01, 1.08, -5.66, 2.20, 1.60, 7.03, repro,
2005-01-25,1.30, 3.08, -0.19, 2.29, 1.74, 7.64, repro,
2005-01-26,1.80, 2.38, -3.93, 2.32, 1.69, 7.27, repro,
2005-01-27,1.42, 2.29, 2.85, 2.27, 1.67, 7.22, repro,
2005-01-28,0.68, 1.94, 0.89, 2.32, 1.77, 7.59, repro,
2005-01-29,0.61, 2.91, -2.65, 2.20, 1.57, 6.98, repro,
2005-01-30,1.24, 1.94, -2.62, 2.21, 1.61, 7.13, repro,
2005-01-31,1.49, 1.77, 3.16, 2.24, 1.65, 7.23, repro,
2005-02-01,1.55, 2.55, -3.90, 2.22, 1.61, 7.13, repro,
2005-02-02,4.58, 0.90, -1.69, 2.21, 1.58, 7.00, repro,
2005-02-03,0.25, 0.73, -5.61, 2.26, 1.58, 7.06, repro,
2005-02-04,1.25, 1.77, -5.71, 2.21, 1.57, 7.01, repro,
2005-02-05,2.63, 2.26, -1.97, 2.18, 1.55, 6.96, repro,
2005-02-06,2.54, 2.52, -0.63, 2.19, 1.56, 6.94, repro,
2005-02-07,2.14, 2.16, -2.38, 2.20, 1.56, 6.93, repro,
2005-02-08,2.20, 2.73, -4.72, 2.26, 1.60, 7.12, repro,
2005-02-09,0.38, 2.64, 1.80, 2.23, 1.58, 7.07, repro,
2005-02-10,1.12, 3.10, 1.18, 2.21, 1.54, 6.97, repro,
2005-02-11,2.02, -1.18, 1.36, 2.21, 1.57, 7.08, repro,
2005-02-12,0.55, 0.71, 9.26, 2.20, 1.55, 6.96, repro,
2005-02-13,1.17, 1.90, 6.06, 2.21, 1.56, 6.99, repro,
2005-02-14,1.09, 2.21, 3.34, 2.20, 1.55, 6.94, repro,
2005-02-15,1.24, 2.51, -4.82, 2.19, 1.55, 6.96, repro,
2005-02-16,1.59, 2.23, -7.55, 2.20, 1.56, 6.99, repro,
2005-02-17,1.97, 2.36, 1.32, 2.28, 1.57, 7.05, repro,
2005-02-18,1.45, 1.67, 0.71, 2.22, 1.56, 7.04, repro,
2005-02-19,0.62, 1.09, 3.93, 2.20, 1.55, 6.91, repro,
2005-02-20,3.87, 0.74, 0.96, 2.21, 1.55, 6.93, repro,
2005-02-21,0.15, 1.57, 0.17, 2.25, 1.61, 7.16, repro,
2005-02-22,1.12, 1.08, 1.29, 2.30, 1.65, 7.44, repro,
2005-02-23,1.78, 2.34, 0.73, 2.28, 1.57, 7.10, repro,
2005-02-24,5.39, 2.37, 2.20, 2.27, 1.56, 7.08, repro,
2005-02-25,0.39, 1.35, -1.40, 2.27, 1.56, 7.03, repro,
2005-02-26,1.37, 1.97, -2.60, 2.33, 1.59, 7.25, repro,
2005-02-27,3.29, 1.46, -8.19, 2.31, 1.63, 7.26, repro,
2005-02-28,1.19, 1.79, 1.95, 2.29, 1.58, 7.13, repro,
2005-03-01,4.95, 1.60, 4.18, 2.29, 1.57, 7.08, repro,
2005-03-02,-0.01, 2.17, -1.71, 2.38, 1.62, 7.49, repro,
2005-03-03,1.45, 2.53, -0.30, 2.34, 1.59, 7.19, repro,
2005-03-04,4.24, 1.09, -2.96, 2.26, 1.57, 7.07, repro,
2005-03-05,3.82, 2.02, -1.67, 2.27, 1.59, 7.08, repro,
2005-03-06,6.80, 0.12, 0.32, 2.29, 1.58, 7.12, repro,
2005-03-07,7.61, 2.67, 4.29, 2.28, 1.57, 7.05, repro,
2005-03-08,4.31, 2.26, -2.96, 2.28, 1.57, 7.05, repro,
2005-03-09,4.09, 1.37, -11.64, 2.32, 1.61, 7.21, repro,
2005-03-10,1.52, 2.47, -1.50, 2.26, 1.57, 7.05, repro,
2005-03-11,3.86, 2.91, 3.02, 2.28, 1.57, 7.08, repro,
2005-03-12,3.56, -1.40, 5.55, 2.30, 1.57, 7.11, repro,
2005-03-13,4.44, -0.59, -6.71, 2.36, 1.59, 7.23, repro,
2005-03-14,2.83, 4.47, 4.91, 2.28, 1.58, 7.09, repro,
2005-03-15,6.61, -1.41, -5.88, 2.33, 1.61, 7.25, repro,
2005-03-16,-1.45, 0.66, 6.35, 2.34, 1.60, 7.22, repro,
2005-03-17,2.17, 2.56, 6.10, 2.26, 1.56, 6.99, repro,
2005-03-18,1.13, 1.88, 9.08, 2.37, 1.66, 7.40, repro,
2005-03-19,0.75, 2.82, 4.04, 2.26, 1.56, 7.04, repro,
2005-03-20,-1.10, 2.83, 7.93, 2.27, 1.58, 7.07, repro,
2005-03-21,1.09, 2.38, 5.49, 2.28, 1.57, 7.05, repro,
2005-03-22,0.89, 0.92, 2.70, 2.26, 1.55, 7.01, repro,
2005-03-23,1.48, 2.02, 8.39, 2.26, 1.55, 7.00, repro,
2005-03-24,-1.45, 0.15, 10.43, 2.26, 1.56, 7.05, repro,
2005-03-25,-0.50, 2.96, 7.81, 2.28, 1.58, 7.13, repro,
2005-03-26,-0.66, 2.71, 7.96, 2.28, 1.57, 7.05, repro,
2005-03-27,0.33, 2.08, 7.35, 2.28, 1.57, 7.03, repro,
2005-03-28,0.33, 2.15, 13.78, 2.28, 1.57, 7.06, repro,
2005-03-29,0.86, 2.15, 9.03, 2.33, 1.62, 7.26, repro,
2005-03-30,1.11, 1.43, 4.57, 2.28, 1.59, 7.13, repro,
2005-03-31,-0.13, 2.34, -4.41, 2.33, 1.61, 7.25, repro,
2005-04-01,0.45, 2.20, -1.86, 2.41, 1.69, 7.53, repro,
2005-04-02,0.68, 1.46, 0.59, 2.28, 1.57, 7.08, repro,
2005-04-03,-0.25, 1.41, 7.58, 2.34, 1.59, 7.31, repro,
2005-04-04,1.99, 2.15, 5.33, 2.38, 1.59, 7.47, repro,
2005-04-05,0.32, 2.63, 4.98, 2.34, 1.58, 7.30, repro,
2005-04-06,4.18, 3.24, 0.02, 2.33, 1.58, 7.27, repro,
2005-04-07,1.44, 1.50, 5.84, 2.28, 1.56, 7.13, repro,
2005-04-08,-1.86, 0.62, 13.27, 2.32, 1.58, 7.27, repro,
2005-04-09,-2.01, 0.56, 9.87, 2.35, 1.58, 7.30, repro,
2005-04-10,0.89, 3.51, 5.08, 2.34, 1.58, 7.31, repro,
2005-04-11,-0.56, 3.47, 5.63, 2.33, 1.57, 7.23, repro,
2005-04-12,1.78, 2.79, 7.37, 2.34, 1.57, 7.27, repro,
2005-04-13,1.63, 2.13, 2.02, 2.33, 1.58, 7.34, repro,
2005-04-14,-0.01, 3.13, -1.21, 2.50, 1.66, 7.55, repro,
2005-04-15,-0.48, 3.33, 0.89, 2.35, 1.59, 7.18, repro,
2005-04-16,3.10, 2.99, 1.35, 2.28, 1.56, 7.02, repro,
2005-04-17,-0.63, 2.86, 3.39, 2.28, 1.56, 7.01, repro,
2005-04-18,2.33, 1.45, -3.22, 2.34, 1.61, 7.24, repro,
2005-04-19,1.96, 2.49, 0.89, 2.36, 1.59, 7.29, repro,
2005-04-20,4.01, 1.93, -5.22, 2.34, 1.59, 7.26, repro,
2005-04-21,1.64, 2.11, -4.85, 2.35, 1.58, 7.30, repro,
2005-04-22,5.46, 3.83, -7.32, 2.29, 1.57, 7.00, repro,
2005-04-23,0.40, 4.27, 3.28, 2.27, 1.56, 7.01, repro,
2005-04-24,3.82, 3.35, 2.84, 2.33, 1.58, 7.27, repro,
2005-04-25,1.74, 1.87, -2.53, 2.33, 1.59, 7.32, repro,
2005-04-26,4.20, 1.50, -3.91, 2.40, 1.66, 7.59, repro,
2005-04-27,3.63, 1.58, -8.02, 2.28, 1.56, 7.00, repro,
2005-04-28,0.75, 1.45, -1.45, 2.34, 1.62, 7.27, repro,
2005-04-29,2.04, 3.25, -3.02, 2.29, 1.56, 7.02, repro,
2005-04-30,2.10, 1.58, -3.33, 2.36, 1.58, 7.24, repro,
2005-05-01,6.12, 3.40, 1.80, 2.33, 1.58, 7.26, repro,
2005-05-02,0.22, 0.62, 0.78, 2.28, 1.56, 7.01, repro,
2005-05-03,3.40, 1.89, -5.84, 2.29, 1.61, 7.19, repro,
2005-05-04,3.59, 3.54, 1.27, 2.31, 1.62, 7.24, repro,
2005-05-05,3.71, 2.54, 6.23, 2.27, 1.56, 7.05, repro,
2005-05-06,5.71, 2.51, 12.20, 2.28, 1.56, 7.02, repro,
2005-05-07,3.82, 2.51, 8.64, 2.28, 1.55, 7.01, repro,
2005-05-08,5.66, 0.59, 0.69, 2.29, 1.58, 7.07, repro,
2005-05-09,-1.71, 0.34, 3.24, 2.35, 1.62, 7.26, repro,
2005-05-10,-0.82, 3.48, 5.59, 2.56, 1.85, 8.25, repro,
2005-05-11,3.07, 1.20, -5.45, 2.46, 1.68, 7.70, repro,
2005-05-12,1.95, 3.37, 2.62, 2.35, 1.66, 7.38, repro,
2005-05-13,5.10, 4.10, 0.49, 2.44, 1.70, 7.54, repro,
2005-05-14,5.82, 3.77, 9.63, 2.35, 1.67, 7.44, repro,
2005-05-15,-2.58, 0.73, 3.54, 2.38, 1.66, 7.55, repro,
2005-05-16,1.24, -0.12, 13.07, 2.33, 1.63, 7.27, repro,
2005-05-17,0.61, 2.75, 11.87, 2.46, 1.64, 7.52, repro,
2005-05-18,0.41, 1.36, 7.04, 2.41, 1.66, 7.41, repro,
2005-05-19,-1.53, 2.25, -2.21, 2.32, 1.63, 7.28, repro,
2005-05-20,2.05, -1.44, 3.22, 2.40, 1.75, 7.75, repro,
2005-05-21,2.18, 0.78, 3.20, 2.32, 1.62, 7.22, repro,
2005-05-22,-0.50, -0.08, -2.98, 2.33, 1.65, 7.33, repro,
2005-05-23,5.54, 2.67, -1.47, 2.30, 1.62, 7.20, repro,
2005-05-24,6.73, 2.06, -0.26, 2.32, 1.62, 7.27, repro,
2005-05-25,6.52, 2.83, 0.87, 2.31, 1.62, 7.28, repro,
2005-05-26,5.94, 2.86, -4.28, 2.31, 1.61, 7.20, repro,
2005-05-27,5.40, 3.16, 1.17, 2.29, 1.61, 7.21, repro,
2005-05-28,3.93, 2.87, 2.49, 2.30, 1.61, 7.19, repro,
2005-05-29,7.92, -0.80, 5.13, 2.49, 1.75, 8.11, repro,
2005-05-30,2.33, 1.67, 4.35, 2.30, 1.63, 7.26, repro,
2005-05-31,4.52, 2.70, 0.89, 2.35, 1.68, 7.53, repro,
2005-06-01,4.68, 1.77, 0.58, 2.31, 1.63, 7.29, repro,
2005-06-02,4.11, 0.53, -1.83, 2.33, 1.63, 7.27, repro,
2005-06-03,5.79, 2.12, 1.77, 2.29, 1.57, 7.07, repro,
2005-06-04,6.08, 2.33, 7.98, 2.31, 1.58, 7.15, repro,
2005-06-05,2.37, 0.81, 11.63, 2.40, 1.67, 7.44, repro,
2005-06-06,1.78, 2.51, 7.37, 2.40, 1.71, 7.70, repro,
2005-06-07,4.83, 0.69, 6.03, 2.35, 1.63, 7.25, repro,
2005-06-08,1.80, 3.37, 10.17, 2.29, 1.58, 7.09, repro,
2005-06-09,4.24, 3.43, 9.05, 2.32, 1.59, 7.23, repro,
2005-06-10,1.24, 0.72, 3.85, 2.42, 1.65, 7.37, repro,
2005-06-11,3.09, 1.23, 5.53, 2.33, 1.63, 7.29, repro,
2005-06-12,7.64, 0.74, 1.23, 2.35, 1.63, 7.31, repro,
2005-06-13,6.79, 0.85, 0.36, 2.36, 1.63, 7.30, repro,
2005-06-14,5.01, 2.22, -1.86, 2.42, 1.64, 7.49, repro,
2005-06-15,3.24, 1.96, 2.49, 2.30, 1.58, 7.12, repro,
2005-06-16,4.33, -0.23, 9.82, 2.38, 1.60, 7.24, repro,
2005-06-17,2.95, 0.30, 10.20, 2.37, 1.59, 7.18, repro,
2005-06-18,2.77, 2.53, 7.87, 2.30, 1.58, 7.11, repro,
2005-06-19,2.11, 2.66, 4.09, 2.29, 1.58, 7.10, repro,
2005-06-20,5.03, 2.09, -3.65, 2.29, 1.58, 7.11, repro,
2005-06-21,5.97, 0.27, 1.74, 2.30, 1.59, 7.18, repro,
2005-06-22,-3.06, 0.22, 0.71, 2.34, 1.59, 7.28, repro,
2005-06-23,5.29, -0.95, 3.19, 2.29, 1.56, 7.06, repro,
2005-06-24,6.17, 2.63, -7.00, 2.28, 1.57, 7.06, repro,
2005-06-25,4.56, 2.46, 3.67, 2.40, 1.67, 7.50, repro,
2005-06-26,2.80, 0.11, -3.43, 2.30, 1.58, 7.09, repro,
2005-06-27,3.34, 0.80, -2.37, 2.29, 1.58, 7.13, repro,
2005-06-28,1.21, -6.60, -1.74, 2.34, 1.64, 7.32, repro,
2005-06-29,2.16, 2.37, 1.95, 2.27, 1.56, 7.04, repro,
2005-06-30,4.01, 1.95, 1.98, 2.24, 1.55, 6.95, repro,
2005-07-01,2.18, 2.89, 2.38, 2.35, 1.62, 7.18, repro,
2005-07-02,3.05, 1.59, 5.74, 2.29, 1.59, 7.11, repro,
2005-07-03,3.00, 3.69, 2.02, 2.26, 1.57, 7.08, repro,
2005-07-04,4.23, 1.92, 2.97, 2.28, 1.56, 7.04, repro,
2005-07-05,2.97, 1.31, 2.94, 2.31, 1.61, 7.12, repro,
2005-07-06,0.75, -2.90, 5.14, 2.32, 1.61, 7.17, repro,
2005-07-07,3.02, 1.55, 2.49, 2.36, 1.62, 7.21, repro,
2005-07-08,-1.14, 0.98, 7.04, 2.35, 1.68, 7.49, repro,
2005-07-09,1.31, 4.04, 11.15, 2.32, 1.63, 7.29, repro,
2005-07-10,5.86, -2.29, 7.70, 2.50, 1.68, 7.48, repro,
2005-07-11,4.56, -0.93, -1.80, 2.25, 1.56, 6.99, repro,
2005-07-12,1.66, 1.06, 7.25, 2.28, 1.59, 7.11, repro,
2005-07-13,3.10, 0.59, 2.50, 2.45, 1.67, 7.41, repro,
2005-07-14,3.91, 2.60, 2.93, 2.37, 1.67, 7.38, repro,
2005-07-15,4.27, 2.10, 9.68, 2.28, 1.57, 7.06, repro,
2005-07-16,4.78, 0.14, 15.21, 2.26, 1.56, 7.01, repro,
2005-07-17,6.16, 3.86, 3.28, 2.42, 1.75, 7.70, repro,
2005-07-18,2.97, 3.31, 6.88, 2.42, 1.68, 7.54, repro,
2005-07-19,4.60, 1.49, 9.12, 2.37, 1.66, 7.38, repro,
2005-07-20,3.13, 2.50, 3.90, 2.34, 1.61, 7.17, repro,
2005-07-21,4.38, 3.58, 9.87, 2.26, 1.56, 7.01, repro,
2005-07-22,3.97, 0.22, 14.12, 2.28, 1.59, 7.12, repro,
2005-07-23,3.57, 3.44, 6.35, 2.46, 1.74, 7.65, repro,
2005-07-24,3.43, 3.40, 7.87, 2.34, 1.62, 7.35, repro,
2005-07-25,4.64, 2.42, 4.41, 2.31, 1.62, 7.31, repro,
2005-07-26,2.98, 2.64, 4.42, 2.38, 1.71, 7.70, repro,
2005-07-27,4.75, 4.15, 10.63, 2.36, 1.66, 7.39, repro,
2005-07-28,5.41, 2.06, 9.73, 2.36, 1.67, 7.42, repro,
2005-07-29,5.33, 2.16, 5.27, 2.32, 1.62, 7.32, repro,
2005-07-30,3.84, 3.15, 7.60, 2.31, 1.62, 7.32, repro,
2005-07-31,4.39, 2.55, 11.74, 2.30, 1.61, 7.31, repro,
2005-08-01,3.69, 1.84, 9.93, 2.30, 1.60, 7.23, repro,
2005-08-02,3.17, 2.97, 8.05, 2.31, 1.59, 7.23, repro,
2005-08-03,4.00, 4.10, 16.41, 2.33, 1.64, 7.25, repro,
2005-08-04,4.45, 3.39, 9.64, 2.28, 1.57, 7.06, repro,
2005-08-05,3.88, 4.70, 8.23, 2.29, 1.58, 7.14, repro,
2005-08-06,2.22, 3.15, 11.55, 2.29, 1.58, 7.12, repro,
2005-08-07,3.22, 3.04, 8.25, 2.35, 1.63, 7.23, repro,
2005-08-08,4.16, 2.43, 10.85, 2.28, 1.57, 7.10, repro,
2005-08-09,3.58, 3.20, 11.26, 2.29, 1.58, 7.13, repro,
2005-08-10,3.11, 3.99, 4.77, 2.33, 1.64, 7.26, repro,
2005-08-11,2.75, 2.81, 7.63, 2.41, 1.65, 7.52, repro,
2005-08-12,3.17, 1.50, 9.66, 2.46, 1.74, 7.73, repro,
2005-08-13,2.84, 2.45, 7.55, 2.28, 1.58, 7.10, repro,
2005-08-14,5.51, 3.38, 12.19, 2.51, 1.74, 7.51, repro,
2005-08-15,4.34, 3.85, 16.13, 2.51, 1.73, 7.47, repro,
2005-08-16,4.87, 2.57, 2.59, 2.41, 1.66, 7.45, repro,
2005-08-17,4.04, 2.35, 14.70, 2.36, 1.64, 7.42, repro,
2005-08-18,3.90, 2.17, 11.15, 2.29, 1.57, 7.13, repro,
2005-08-19,3.19, 3.21, 10.92, 2.29, 1.58, 7.14, repro,
2005-08-20,2.63, 2.54, 11.35, 2.50, 1.66, 7.44, repro,
2005-08-21,4.03, 0.98, 10.38, 2.32, 1.62, 7.18, repro,
2005-08-22,1.38, 1.95, 10.42, 2.34, 1.65, 7.34, repro,
2005-08-23,4.12, 2.73, 14.71, 2.29, 1.59, 7.20, repro,
2005-08-24,5.11, 2.36, 9.85, 2.44, 1.65, 7.51, repro,
2005-08-25,5.54, 2.49, 15.38, 2.41, 1.61, 7.30, repro,
2005-08-26,4.44, 3.11, 10.18, 2.28, 1.57, 7.06, repro,
2005-08-27,3.41, 2.15, 12.35, 2.28, 1.57, 7.11, repro,